Location: Alulod
(14.2076°N, 120.8898°E)
Time: 13:10:28
(UTC+00:00)

USA 238 DEB - Pass Details

Date: 16 March 2026
Orbit: 883 x 1328 km, 63.4° (Epoch: 10 January)

Event Time Altitude Azimuth Distance (km) Brightness Sun altitude
Rises 11:18:29 0° 230° (SW) 3,473 7.1 -18.2°
Reaches altitude 10° 11:21:19 10° 242° (WSW) 2,537 6.6 -18.9°
Maximum altitude 11:26:09 27° 299° (WNW) 1,665 5.4 -20.0°
Drops below altitude 10° 11:31:11 10° 355° (N) 2,639 5.9 -21.3°
Sets 11:34:13 0° 8° (N) 3,642 6.5 -22.0°
